TimeEDT,TemperatureF,Dew PointF,Humidity,Sea Level PressureIn,VisibilityMPH,Wind Direction,Wind SpeedMPH,Gust SpeedMPH,PrecipitationIn,Events,Conditions,WindDirDegrees,DateUTC
12:53 AM,78.1,70.0,76,30.06,10.0,NE,3.5,-,N/A,,Clear,40,2012-10-11 04:53:00
1:53 AM,75.9,71.1,85,30.06,10.0,NNW,5.8,-,N/A,,Partly Cloudy,340,2012-10-11 05:53:00
2:53 AM,75.0,71.1,87,30.06,10.0,North,4.6,-,N/A,,Partly Cloudy,360,2012-10-11 06:53:00
3:53 AM,73.9,72.0,93,30.05,10.0,North,4.6,-,N/A,,Clear,360,2012-10-11 07:53:00
4:53 AM,73.9,71.1,91,30.04,10.0,North,5.8,-,N/A,,Clear,360,2012-10-11 08:53:00
5:53 AM,73.9,70.0,87,30.05,10.0,North,4.6,-,N/A,,Clear,360,2012-10-11 09:53:00
6:53 AM,73.0,70.0,90,30.06,10.0,North,5.8,-,N/A,,Clear,360,2012-10-11 10:53:00
7:53 AM,73.9,70.0,87,30.08,10.0,North,4.6,-,N/A,,Partly Cloudy,350,2012-10-11 11:53:00
8:53 AM,78.1,69.1,74,30.09,10.0,North,5.8,-,N/A,,Clear,10,2012-10-11 12:53:00
9:53 AM,80.1,68.0,67,30.12,10.0,North,9.2,-,N/A,,Clear,10,2012-10-11 13:53:00
10:53 AM,82.9,66.0,56,30.12,10.0,NE,13.8,-,N/A,,Partly Cloudy,50,2012-10-11 14:53:00
11:53 AM,84.0,66.0,55,30.12,10.0,ENE,13.8,-,N/A,,Mostly Cloudy,60,2012-10-11 15:53:00
12:53 PM,84.9,66.0,53,30.11,10.0,NE,12.7,-,N/A,,Scattered Clouds,50,2012-10-11 16:53:00
1:53 PM,84.9,66.0,53,30.09,10.0,NE,15.0,-,N/A,,Partly Cloudy,40,2012-10-11 17:53:00
2:53 PM,84.9,64.9,51,30.08,10.0,ENE,16.1,20.7,N/A,,Scattered Clouds,60,2012-10-11 18:53:00
3:53 PM,86.0,66.0,51,30.07,10.0,ENE,15.0,20.7,N/A,,Clear,60,2012-10-11 19:53:00
4:53 PM,84.0,66.0,55,30.07,10.0,NNE,16.1,-,N/A,,Partly Cloudy,20,2012-10-11 20:53:00
5:53 PM,82.4,66.2,58,30.07,10.0,NE,16.1,-,N/A,,Scattered Clouds,40,2012-10-11 21:53:00
6:53 PM,80.6,66.2,61,30.08,10.0,NNE,12.7,-,N/A,,Partly Cloudy,30,2012-10-11 22:53:00
7:53 PM,79.0,66.0,64,30.09,10.0,NNE,9.2,-,N/A,,Partly Cloudy,30,2012-10-11 23:53:00
8:53 PM,79.0,66.0,64,30.10,10.0,NNE,6.9,-,N/A,,Clear,20,2012-10-12 00:53:00
9:53 PM,78.1,66.0,66,30.11,10.0,NNE,6.9,-,N/A,,Clear,30,2012-10-12 01:53:00
10:53 PM,78.8,66.2,65,30.10,10.0,NNE,8.1,-,N/A,,Clear,30,2012-10-12 02:53:00
11:53 PM,79.0,66.0,64,30.10,10.0,NE,12.7,-,N/A,,Partly Cloudy,40,2012-10-12 03:53:00